KJAC

Jackson Hole Airport

Airport
ICAO code
KJAC
IATA Code
JAC
Summary
ICAO Region
NAM
ICAO Territory
Location

Jackson Hole, Wyoming

Serving
Jackson
Elevation
6451 ft
Coordinates
43° 36' 29" N , 110° 44' 18" W
KCC
Metar
KJAC 222156Z 27005KT 10SM CLR 28/05 A3027 RMK AO2 SLP184 T02830050

Public airport located 7 nm north of the central business district of Jackson, a town in Teton County, Wyoming, USA.

Airport map

Aerial View

SKYbrary Partners:

Safety knowledge contributed by: